Year,Month,Day,Hour,Minute,Value (Times are PST for temperature in C)
2018,07,29,00,00,19.90
2018,07,29,00,01,19.90
2018,07,29,00,02,19.90
2018,07,29,00,03,19.90
2018,07,29,00,04,19.90
2018,07,29,00,05,19.90
2018,07,29,00,06,19.80
2018,07,29,00,07,19.80
2018,07,29,00,08,19.80
2018,07,29,00,09,19.80
2018,07,29,00,10,19.70
2018,07,29,00,11,19.70
2018,07,29,00,12,19.70
2018,07,29,00,13,19.60
2018,07,29,00,14,19.60
2018,07,29,00,15,19.60
2018,07,29,00,16,19.50
2018,07,29,00,17,19.50
2018,07,29,00,18,19.50
2018,07,29,00,19,19.50
2018,07,29,00,20,19.40
2018,07,29,00,21,19.40
2018,07,29,00,22,19.40
2018,07,29,00,23,19.40
2018,07,29,00,24,19.30
2018,07,29,00,25,19.30
2018,07,29,00,26,19.20
2018,07,29,00,27,19.20
2018,07,29,00,28,19.20
2018,07,29,00,29,19.20
2018,07,29,00,30,19.10
2018,07,29,00,31,19.10
2018,07,29,00,32,19.10
2018,07,29,00,33,19.10
2018,07,29,00,34,19.10
2018,07,29,00,35,19.00
2018,07,29,00,36,19.00
2018,07,29,00,37,19.00
2018,07,29,00,38,18.90
2018,07,29,00,39,18.90
2018,07,29,00,40,18.90
2018,07,29,00,41,18.90
2018,07,29,00,42,18.90
2018,07,29,00,43,18.90
2018,07,29,00,44,18.90
2018,07,29,00,45,18.80
2018,07,29,00,46,18.80
2018,07,29,00,47,18.80
2018,07,29,00,48,18.80
2018,07,29,00,49,18.80
2018,07,29,00,50,18.80
2018,07,29,00,51,18.80
2018,07,29,00,52,18.80
2018,07,29,00,53,18.70
2018,07,29,00,54,18.70
2018,07,29,00,55,18.70
2018,07,29,00,56,18.70
2018,07,29,00,57,18.70
2018,07,29,00,58,18.70
2018,07,29,00,59,18.70
2018,07,29,01,00,18.60
2018,07,29,01,01,18.60
2018,07,29,01,02,18.60
2018,07,29,01,03,18.60
2018,07,29,01,04,18.50
2018,07,29,01,05,18.50
2018,07,29,01,06,18.50
2018,07,29,01,07,18.40
2018,07,29,01,08,18.40
2018,07,29,01,09,18.40
2018,07,29,01,10,18.40
2018,07,29,01,11,18.40
2018,07,29,01,12,18.30
2018,07,29,01,13,18.30
2018,07,29,01,14,18.30
2018,07,29,01,15,18.30
2018,07,29,01,16,18.20
2018,07,29,01,17,18.20
2018,07,29,01,18,18.20
2018,07,29,01,19,18.20
2018,07,29,01,20,18.20
2018,07,29,01,21,18.20
2018,07,29,01,22,18.20
2018,07,29,01,23,18.20
2018,07,29,01,24,18.20
2018,07,29,01,25,18.20
2018,07,29,01,26,18.20
2018,07,29,01,27,18.20
2018,07,29,01,28,18.20
2018,07,29,01,29,18.10
2018,07,29,01,30,18.10
2018,07,29,01,31,18.10
2018,07,29,01,32,18.10
2018,07,29,01,33,18.10
2018,07,29,01,34,18.10
2018,07,29,01,35,18.10
2018,07,29,01,36,18.10
2018,07,29,01,37,18.10
2018,07,29,01,38,18.00
2018,07,29,01,39,18.00
2018,07,29,01,40,18.00
2018,07,29,01,41,18.00
2018,07,29,01,42,17.90
2018,07,29,01,43,17.90
2018,07,29,01,44,17.90
2018,07,29,01,45,17.90
2018,07,29,01,46,17.90
2018,07,29,01,47,17.90
2018,07,29,01,48,17.80
2018,07,29,01,49,17.80
2018,07,29,01,50,17.80
2018,07,29,01,51,17.80
2018,07,29,01,52,17.80
2018,07,29,01,53,17.80
2018,07,29,01,54,17.80
2018,07,29,01,55,17.80
2018,07,29,01,56,17.80
2018,07,29,01,57,17.80
2018,07,29,01,58,17.80
2018,07,29,01,59,17.80
2018,07,29,02,00,17.80
2018,07,29,02,01,17.80
2018,07,29,02,02,17.80
2018,07,29,02,03,17.80
2018,07,29,02,04,17.80
2018,07,29,02,05,17.80
2018,07,29,02,06,17.80
2018,07,29,02,07,17.80
2018,07,29,02,08,17.80
2018,07,29,02,09,17.80
2018,07,29,02,10,17.80
2018,07,29,02,11,17.80
2018,07,29,02,12,17.80
2018,07,29,02,13,17.80
2018,07,29,02,14,17.90
2018,07,29,02,15,17.90
2018,07,29,02,16,17.90
2018,07,29,02,17,17.80
2018,07,29,02,18,17.80
2018,07,29,02,19,17.80
2018,07,29,02,20,17.80
2018,07,29,02,21,17.80
2018,07,29,02,22,17.80
2018,07,29,02,23,17.80
2018,07,29,02,24,17.80
2018,07,29,02,25,17.80
2018,07,29,02,26,17.80
2018,07,29,02,27,17.80
2018,07,29,02,28,17.70
2018,07,29,02,29,17.70
2018,07,29,02,30,17.70
2018,07,29,02,31,17.70
2018,07,29,02,32,17.70
2018,07,29,02,33,17.60
2018,07,29,02,34,17.60
2018,07,29,02,35,17.60
2018,07,29,02,36,17.60
2018,07,29,02,37,17.60
2018,07,29,02,38,17.60
2018,07,29,02,39,17.50
2018,07,29,02,40,17.50
2018,07,29,02,41,17.40
2018,07,29,02,42,17.40
2018,07,29,02,43,17.40
2018,07,29,02,44,17.40
2018,07,29,02,45,17.40
2018,07,29,02,46,17.40
2018,07,29,02,47,17.30
2018,07,29,02,48,17.30
2018,07,29,02,49,17.30
2018,07,29,02,50,17.30
2018,07,29,02,51,17.30
2018,07,29,02,52,17.30
2018,07,29,02,53,17.20
2018,07,29,02,54,17.20
2018,07,29,02,55,17.20
2018,07,29,02,56,17.20
2018,07,29,02,57,17.20
2018,07,29,02,58,17.20
2018,07,29,02,59,17.20
2018,07,29,03,00,17.30
2018,07,29,03,01,17.30
2018,07,29,03,02,17.30
2018,07,29,03,03,17.30
2018,07,29,03,04,17.30
2018,07,29,03,05,17.30
2018,07,29,03,06,17.30
2018,07,29,03,07,17.30
2018,07,29,03,08,17.30
2018,07,29,03,09,17.30
2018,07,29,03,10,17.30
2018,07,29,03,11,17.30
2018,07,29,03,12,17.30
2018,07,29,03,13,17.30
2018,07,29,03,14,17.40
2018,07,29,03,15,17.40
2018,07,29,03,16,17.40
2018,07,29,03,17,17.40
2018,07,29,03,18,17.50
2018,07,29,03,19,17.50
2018,07,29,03,20,17.50
2018,07,29,03,21,17.50
2018,07,29,03,22,17.40
2018,07,29,03,23,17.40
2018,07,29,03,24,17.40
2018,07,29,03,25,17.40
2018,07,29,03,26,17.40
2018,07,29,03,27,17.40
2018,07,29,03,28,17.40
2018,07,29,03,29,17.30
2018,07,29,03,30,17.30
2018,07,29,03,31,17.30
2018,07,29,03,32,17.30
2018,07,29,03,33,17.30
2018,07,29,03,34,17.30
2018,07,29,03,35,17.20
2018,07,29,03,36,17.20
2018,07,29,03,37,17.20
2018,07,29,03,38,17.20
2018,07,29,03,39,17.20
2018,07,29,03,40,17.20
2018,07,29,03,41,17.20
2018,07,29,03,42,17.20
2018,07,29,03,43,17.20
2018,07,29,03,44,17.20
2018,07,29,03,45,17.10
2018,07,29,03,46,17.10
2018,07,29,03,47,17.10
2018,07,29,03,48,17.10
2018,07,29,03,49,17.10
2018,07,29,03,50,17.10
2018,07,29,03,51,17.10
2018,07,29,03,52,17.10
2018,07,29,03,53,17.00
2018,07,29,03,54,17.00
2018,07,29,03,55,17.00
2018,07,29,03,56,17.00
2018,07,29,03,57,17.00
2018,07,29,03,58,17.00
2018,07,29,03,59,16.90
2018,07,29,04,00,16.90
2018,07,29,04,01,16.90
2018,07,29,04,02,16.90
2018,07,29,04,03,16.90
2018,07,29,04,04,16.90
2018,07,29,04,05,16.90
2018,07,29,04,06,16.90
2018,07,29,04,07,16.90
2018,07,29,04,08,16.90
2018,07,29,04,09,16.90
2018,07,29,04,10,16.90
2018,07,29,04,11,16.90
2018,07,29,04,12,16.90
2018,07,29,04,13,16.90
2018,07,29,04,14,16.90
2018,07,29,04,15,16.90
2018,07,29,04,16,16.90
2018,07,29,04,17,16.90
2018,07,29,04,18,16.90
2018,07,29,04,19,17.00
2018,07,29,04,20,17.00
2018,07,29,04,21,17.00
2018,07,29,04,22,17.00
2018,07,29,04,23,17.00
2018,07,29,04,24,17.00
2018,07,29,04,25,17.00
2018,07,29,04,26,17.00
2018,07,29,04,27,17.00
2018,07,29,04,28,17.00
2018,07,29,04,29,17.00
2018,07,29,04,30,17.00
2018,07,29,04,31,17.00
2018,07,29,04,32,16.90
2018,07,29,04,33,16.90
2018,07,29,04,34,16.90
2018,07,29,04,35,16.90
2018,07,29,04,36,16.90
2018,07,29,04,37,16.80
2018,07,29,04,38,16.80
2018,07,29,04,39,16.80
2018,07,29,04,40,16.80
2018,07,29,04,41,16.80
2018,07,29,04,42,16.80
2018,07,29,04,43,16.70
2018,07,29,04,44,16.70
2018,07,29,04,45,16.70
2018,07,29,04,46,16.70
2018,07,29,04,47,16.70
2018,07,29,04,48,16.70
2018,07,29,04,49,16.70
2018,07,29,04,50,16.60
2018,07,29,04,51,16.60
2018,07,29,04,52,16.60
2018,07,29,04,53,16.60
2018,07,29,04,54,16.60
2018,07,29,04,55,16.60
2018,07,29,04,56,16.60
2018,07,29,04,57,16.60
2018,07,29,04,58,16.60
2018,07,29,04,59,16.60
2018,07,29,05,00,16.60
2018,07,29,05,01,16.60
2018,07,29,05,02,16.60
2018,07,29,05,03,16.60
2018,07,29,05,04,16.60
2018,07,29,05,05,16.60
2018,07,29,05,06,16.60
2018,07,29,05,07,16.60
2018,07,29,05,08,16.60
2018,07,29,05,09,16.60
2018,07,29,05,10,16.60
2018,07,29,05,11,16.60
2018,07,29,05,12,16.60
2018,07,29,05,13,16.60
2018,07,29,05,14,16.60
2018,07,29,05,15,16.50
2018,07,29,05,16,16.50
2018,07,29,05,17,16.50
2018,07,29,05,18,16.50
2018,07,29,05,19,16.50
2018,07,29,05,20,16.50
2018,07,29,05,21,16.50
2018,07,29,05,22,16.50
2018,07,29,05,23,16.50
2018,07,29,05,24,16.50
2018,07,29,05,25,16.40
2018,07,29,05,26,16.40
2018,07,29,05,27,16.40
2018,07,29,05,28,16.40
2018,07,29,05,29,16.40
2018,07,29,05,30,16.40
2018,07,29,05,31,16.40
2018,07,29,05,32,16.30
2018,07,29,05,33,16.30
2018,07,29,05,34,16.30
2018,07,29,05,35,16.30
2018,07,29,05,36,16.30
2018,07,29,05,37,16.30
2018,07,29,05,38,16.30
2018,07,29,05,39,16.30
2018,07,29,05,40,16.30
2018,07,29,05,41,16.30
2018,07,29,05,42,16.30
2018,07,29,05,43,16.30
2018,07,29,05,44,16.30
2018,07,29,05,45,16.30
2018,07,29,05,46,16.30
2018,07,29,05,47,16.30
2018,07,29,05,48,16.30
2018,07,29,05,49,16.30
2018,07,29,05,50,16.30
2018,07,29,05,51,16.30
2018,07,29,05,52,16.30
2018,07,29,05,53,16.30
2018,07,29,05,54,16.20
2018,07,29,05,55,16.20
2018,07,29,05,56,16.20
2018,07,29,05,57,16.20
2018,07,29,05,58,16.20
2018,07,29,05,59,16.20
2018,07,29,06,00,16.20
2018,07,29,06,01,16.20
2018,07,29,06,02,16.20
2018,07,29,06,03,16.20
2018,07,29,06,04,16.20
2018,07,29,06,05,16.20
2018,07,29,06,06,16.30
2018,07,29,06,07,16.30
2018,07,29,06,08,16.30
2018,07,29,06,09,16.30
2018,07,29,06,10,16.30
2018,07,29,06,11,16.30
2018,07,29,06,12,16.30
2018,07,29,06,13,16.30
2018,07,29,06,14,16.30
2018,07,29,06,15,16.30
2018,07,29,06,16,16.30
2018,07,29,06,17,16.30
2018,07,29,06,18,16.30
2018,07,29,06,19,16.20
2018,07,29,06,20,16.20
2018,07,29,06,21,16.20
2018,07,29,06,22,16.20
2018,07,29,06,23,16.20
2018,07,29,06,24,16.20
2018,07,29,06,25,16.20
2018,07,29,06,26,16.20
2018,07,29,06,27,16.20
2018,07,29,06,28,16.20
2018,07,29,06,29,16.20
2018,07,29,06,30,16.20
2018,07,29,06,31,16.20
2018,07,29,06,32,16.20
2018,07,29,06,33,16.20
2018,07,29,06,34,16.20
2018,07,29,06,35,16.20
2018,07,29,06,36,16.20
2018,07,29,06,37,16.20
2018,07,29,06,38,16.20
2018,07,29,06,39,16.20
2018,07,29,06,40,16.20
2018,07,29,06,41,16.30
2018,07,29,06,42,16.30
2018,07,29,06,43,16.30
2018,07,29,06,44,16.30
2018,07,29,06,45,16.30
2018,07,29,06,46,16.40
2018,07,29,06,47,16.40
2018,07,29,06,48,16.40
2018,07,29,06,49,16.40
2018,07,29,06,50,16.50
2018,07,29,06,51,16.50
2018,07,29,06,52,16.60
2018,07,29,06,53,16.60
2018,07,29,06,54,16.60
2018,07,29,06,55,16.70
2018,07,29,06,56,16.70
2018,07,29,06,57,16.70
2018,07,29,06,58,16.80
2018,07,29,06,59,16.80
2018,07,29,07,00,16.80
2018,07,29,07,01,16.80
2018,07,29,07,02,16.90
2018,07,29,07,03,16.90
2018,07,29,07,04,16.90
2018,07,29,07,05,16.90
2018,07,29,07,06,17.00
2018,07,29,07,07,17.00
2018,07,29,07,08,17.10
2018,07,29,07,09,17.10
2018,07,29,07,10,17.20
2018,07,29,07,11,17.30
2018,07,29,07,12,17.30
2018,07,29,07,13,17.40
2018,07,29,07,14,17.50
2018,07,29,07,15,17.50
2018,07,29,07,16,17.60
2018,07,29,07,17,17.60
2018,07,29,07,18,17.70
2018,07,29,07,19,17.70
2018,07,29,07,20,17.70
2018,07,29,07,21,17.80
2018,07,29,07,22,17.80
2018,07,29,07,23,17.80
2018,07,29,07,24,17.90
2018,07,29,07,25,17.90
2018,07,29,07,26,18.00
2018,07,29,07,27,18.00
2018,07,29,07,28,18.10
2018,07,29,07,29,18.10
2018,07,29,07,30,18.20
2018,07,29,07,31,18.30
2018,07,29,07,32,18.30
2018,07,29,07,33,18.30
2018,07,29,07,34,18.40
2018,07,29,07,35,18.50
2018,07,29,07,36,18.50
2018,07,29,07,37,18.60
2018,07,29,07,38,18.60
2018,07,29,07,39,18.70
2018,07,29,07,40,18.70
2018,07,29,07,41,18.80
2018,07,29,07,42,18.80
2018,07,29,07,43,18.80
2018,07,29,07,44,18.90
2018,07,29,07,45,18.90
2018,07,29,07,46,19.00
2018,07,29,07,47,19.10
2018,07,29,07,48,19.10
2018,07,29,07,49,19.20
2018,07,29,07,50,19.30
2018,07,29,07,51,19.30
2018,07,29,07,52,19.40
2018,07,29,07,53,19.50
2018,07,29,07,54,19.50
2018,07,29,07,55,19.60
2018,07,29,07,56,19.70
2018,07,29,07,57,19.70
2018,07,29,07,58,19.70
2018,07,29,07,59,19.80
2018,07,29,08,00,19.80
2018,07,29,08,01,19.80
2018,07,29,08,02,19.90
2018,07,29,08,03,19.90
2018,07,29,08,04,20.00
2018,07,29,08,05,20.00
2018,07,29,08,06,20.10
2018,07,29,08,07,20.20
2018,07,29,08,08,20.20
2018,07,29,08,09,20.30
2018,07,29,08,10,20.30
2018,07,29,08,11,20.40
2018,07,29,08,12,20.50
2018,07,29,08,13,20.50
2018,07,29,08,14,20.60
2018,07,29,08,15,20.60
2018,07,29,08,16,20.70
2018,07,29,08,17,20.70
2018,07,29,08,18,20.80
2018,07,29,08,19,20.80
2018,07,29,08,20,20.80
2018,07,29,08,21,20.90
2018,07,29,08,22,20.90
2018,07,29,08,23,21.00
2018,07,29,08,24,21.00
2018,07,29,08,25,21.10
2018,07,29,08,26,21.10
2018,07,29,08,27,21.10
2018,07,29,08,28,21.20
2018,07,29,08,29,21.20
2018,07,29,08,30,21.30
2018,07,29,08,31,21.30
2018,07,29,08,32,21.30
2018,07,29,08,33,21.30
2018,07,29,08,34,21.40
2018,07,29,08,35,21.40
2018,07,29,08,36,21.40
2018,07,29,08,37,21.40
2018,07,29,08,38,21.50
2018,07,29,08,39,21.50
2018,07,29,08,40,21.50
2018,07,29,08,41,21.60
2018,07,29,08,42,21.70
2018,07,29,08,43,21.70
2018,07,29,08,44,21.80
2018,07,29,08,45,21.80
2018,07,29,08,46,21.90
2018,07,29,08,47,22.00
2018,07,29,08,48,22.00
2018,07,29,08,49,22.10
2018,07,29,08,50,22.10
2018,07,29,08,51,22.20
2018,07,29,08,52,22.20
2018,07,29,08,53,22.20
2018,07,29,08,54,22.30
2018,07,29,08,55,22.30
2018,07,29,08,56,22.40
2018,07,29,08,57,22.50
2018,07,29,08,58,22.50
2018,07,29,08,59,22.60
2018,07,29,09,00,22.60
2018,07,29,09,01,22.60
2018,07,29,09,02,22.70
2018,07,29,09,03,22.70
2018,07,29,09,04,22.80
2018,07,29,09,05,22.80
2018,07,29,09,06,22.90
2018,07,29,09,07,22.90
2018,07,29,09,08,22.90
2018,07,29,09,09,23.00
2018,07,29,09,10,23.00
2018,07,29,09,11,23.10
2018,07,29,09,12,23.10
2018,07,29,09,13,23.10
2018,07,29,09,14,23.10
2018,07,29,09,15,23.20
2018,07,29,09,16,23.20
2018,07,29,09,17,23.20
2018,07,29,09,18,23.20
2018,07,29,09,19,23.20
2018,07,29,09,20,23.30
2018,07,29,09,21,23.30
2018,07,29,09,22,23.40
2018,07,29,09,23,23.40
2018,07,29,09,24,23.40
2018,07,29,09,25,23.40
2018,07,29,09,26,23.40
2018,07,29,09,27,23.50
2018,07,29,09,28,23.50
2018,07,29,09,29,23.60
2018,07,29,09,30,23.60
2018,07,29,09,31,23.70
2018,07,29,09,32,23.70
2018,07,29,09,33,23.60
2018,07,29,09,34,23.60
2018,07,29,09,35,23.60
2018,07,29,09,36,23.50
2018,07,29,09,37,23.40
2018,07,29,09,38,23.40
2018,07,29,09,39,23.40
2018,07,29,09,40,23.40
2018,07,29,09,41,23.40
2018,07,29,09,42,23.50
2018,07,29,09,43,23.50
2018,07,29,09,44,23.60
2018,07,29,09,45,23.70
2018,07,29,09,46,23.70
2018,07,29,09,47,23.70
2018,07,29,09,48,23.70
2018,07,29,09,49,23.80
2018,07,29,09,50,23.80
2018,07,29,09,51,23.80
2018,07,29,09,52,23.90
2018,07,29,09,53,23.90
2018,07,29,09,54,24.00
2018,07,29,09,55,24.10
2018,07,29,09,56,24.10
2018,07,29,09,57,24.20
2018,07,29,09,58,24.20
2018,07,29,09,59,24.20
2018,07,29,10,00,24.20
2018,07,29,10,01,24.20
2018,07,29,10,02,24.20
2018,07,29,10,03,24.20
2018,07,29,10,04,24.30
2018,07,29,10,05,24.30
2018,07,29,10,06,24.30
2018,07,29,10,07,24.30
2018,07,29,10,08,24.30
2018,07,29,10,09,24.30
2018,07,29,10,10,24.30
2018,07,29,10,11,24.30
2018,07,29,10,12,24.30
2018,07,29,10,13,24.30
2018,07,29,10,14,24.40
2018,07,29,10,15,24.40
2018,07,29,10,16,24.40
2018,07,29,10,17,24.50
2018,07,29,10,18,24.50
2018,07,29,10,19,24.60
2018,07,29,10,20,24.60
2018,07,29,10,21,24.70
2018,07,29,10,22,24.70
2018,07,29,10,23,24.70
2018,07,29,10,24,24.70
2018,07,29,10,25,24.70
2018,07,29,10,26,24.80
2018,07,29,10,27,24.80
2018,07,29,10,28,24.80
2018,07,29,10,29,24.80
2018,07,29,10,30,24.70
2018,07,29,10,31,24.60
2018,07,29,10,32,24.60
2018,07,29,10,33,24.60
2018,07,29,10,34,24.50
2018,07,29,10,35,24.50
2018,07,29,10,36,24.40
2018,07,29,10,37,24.40
2018,07,29,10,38,24.30
2018,07,29,10,39,24.20
2018,07,29,10,40,24.10
2018,07,29,10,41,24.10
2018,07,29,10,42,24.10
2018,07,29,10,43,24.10
2018,07,29,10,44,24.10
2018,07,29,10,45,24.20
2018,07,29,10,46,24.30
2018,07,29,10,47,24.30
2018,07,29,10,48,24.30
2018,07,29,10,49,24.30
2018,07,29,10,50,24.30
2018,07,29,10,51,24.30
2018,07,29,10,52,24.30
2018,07,29,10,53,24.30
2018,07,29,10,54,24.20
2018,07,29,10,55,24.20
2018,07,29,10,56,24.20
2018,07,29,10,57,24.20
2018,07,29,10,58,24.30
2018,07,29,10,59,24.30
2018,07,29,11,00,24.40
2018,07,29,11,01,24.50
2018,07,29,11,02,24.60
2018,07,29,11,03,24.60
2018,07,29,11,04,24.70
2018,07,29,11,05,24.80
2018,07,29,11,06,24.90
2018,07,29,11,07,25.00
2018,07,29,11,08,25.00
2018,07,29,11,09,25.00
2018,07,29,11,10,25.00
2018,07,29,11,11,24.90
2018,07,29,11,12,24.90
2018,07,29,11,13,24.80
2018,07,29,11,14,24.70
2018,07,29,11,15,24.60
2018,07,29,11,16,24.60
2018,07,29,11,17,24.60
2018,07,29,11,18,24.60
2018,07,29,11,19,24.70
2018,07,29,11,20,24.70
2018,07,29,11,21,24.70
2018,07,29,11,22,24.70
2018,07,29,11,23,24.80
2018,07,29,11,24,24.90
2018,07,29,11,25,24.90
2018,07,29,11,26,25.00
2018,07,29,11,27,25.00
2018,07,29,11,28,25.00
2018,07,29,11,29,25.10
2018,07,29,11,30,25.10
2018,07,29,11,31,25.20
2018,07,29,11,32,25.30
2018,07,29,11,33,25.30
2018,07,29,11,34,25.40
2018,07,29,11,35,25.30
2018,07,29,11,36,25.30
2018,07,29,11,37,25.30
2018,07,29,11,38,25.30
2018,07,29,11,39,25.30
2018,07,29,11,40,25.30
2018,07,29,11,41,25.30
2018,07,29,11,42,25.20
2018,07,29,11,43,25.20
2018,07,29,11,44,25.10
2018,07,29,11,45,25.10
2018,07,29,11,46,25.10
2018,07,29,11,47,25.10
2018,07,29,11,48,25.10
2018,07,29,11,49,25.10
2018,07,29,11,50,25.10
2018,07,29,11,51,25.20
2018,07,29,11,52,25.20
2018,07,29,11,53,25.20
2018,07,29,11,54,25.30
2018,07,29,11,55,25.30
2018,07,29,11,56,25.30
2018,07,29,11,57,25.40
2018,07,29,11,58,25.50
2018,07,29,11,59,25.50
2018,07,29,12,00,25.60
2018,07,29,12,01,25.60
2018,07,29,12,02,25.60
2018,07,29,12,03,25.70
2018,07,29,12,04,25.70
2018,07,29,12,05,25.70
2018,07,29,12,06,25.70
2018,07,29,12,07,25.70
2018,07,29,12,08,25.70
2018,07,29,12,09,25.80
2018,07,29,12,10,25.80
2018,07,29,12,11,25.80
2018,07,29,12,12,25.80
2018,07,29,12,13,25.80
2018,07,29,12,14,25.80
2018,07,29,12,15,25.80
2018,07,29,12,16,25.80
2018,07,29,12,17,25.80
2018,07,29,12,18,25.80
2018,07,29,12,19,25.80
2018,07,29,12,20,25.80
2018,07,29,12,21,25.80
2018,07,29,12,22,25.80
2018,07,29,12,23,25.80
2018,07,29,12,24,25.90
2018,07,29,12,25,25.90
2018,07,29,12,26,26.00
2018,07,29,12,27,26.20
2018,07,29,12,28,26.20
2018,07,29,12,29,26.30
2018,07,29,12,30,26.40
2018,07,29,12,31,26.50
2018,07,29,12,32,26.50
2018,07,29,12,33,26.50
2018,07,29,12,34,26.50
2018,07,29,12,35,26.50
2018,07,29,12,36,26.50
2018,07,29,12,37,26.50
2018,07,29,12,38,26.50
2018,07,29,12,39,26.50
2018,07,29,12,40,26.60
2018,07,29,12,41,26.60
2018,07,29,12,42,26.70
2018,07,29,12,43,26.70
2018,07,29,12,44,26.70
2018,07,29,12,45,26.70
2018,07,29,12,46,26.70
2018,07,29,12,47,26.60
2018,07,29,12,48,26.60
2018,07,29,12,49,26.60
2018,07,29,12,50,26.60
2018,07,29,12,51,26.60
2018,07,29,12,52,26.60
2018,07,29,12,53,26.50
2018,07,29,12,54,26.50
2018,07,29,12,55,26.50
2018,07,29,12,56,26.60
2018,07,29,12,57,26.60
2018,07,29,12,58,26.60
2018,07,29,12,59,26.60
2018,07,29,13,00,26.70
2018,07,29,13,01,26.70
2018,07,29,13,02,26.70
2018,07,29,13,03,26.70
2018,07,29,13,04,26.70
2018,07,29,13,05,26.70
2018,07,29,13,06,26.70
2018,07,29,13,07,26.70
2018,07,29,13,08,26.70
2018,07,29,13,09,26.70
2018,07,29,13,10,26.70
2018,07,29,13,11,26.80
2018,07,29,13,12,26.90
2018,07,29,13,13,26.90
2018,07,29,13,14,26.90
2018,07,29,13,15,27.00
2018,07,29,13,16,27.00
2018,07,29,13,17,27.00
2018,07,29,13,18,27.10
2018,07,29,13,19,27.10
2018,07,29,13,20,27.20
2018,07,29,13,21,27.10
2018,07,29,13,22,27.10
2018,07,29,13,23,27.10
2018,07,29,13,24,27.20
2018,07,29,13,25,27.20
2018,07,29,13,26,27.20
2018,07,29,13,27,27.30
2018,07,29,13,28,27.30
2018,07,29,13,29,27.30
2018,07,29,13,30,27.40
2018,07,29,13,31,27.40
2018,07,29,13,32,27.40
2018,07,29,13,33,27.40
2018,07,29,13,34,27.40
2018,07,29,13,35,27.40
2018,07,29,13,36,27.50
2018,07,29,13,37,27.50
2018,07,29,13,38,27.60
2018,07,29,13,39,27.60
2018,07,29,13,40,27.60
2018,07,29,13,41,27.60
2018,07,29,13,42,27.60
2018,07,29,13,43,27.50
2018,07,29,13,44,27.60
2018,07,29,13,45,27.60
2018,07,29,13,46,27.60
2018,07,29,13,47,27.70
2018,07,29,13,48,27.70
2018,07,29,13,49,27.80
2018,07,29,13,50,27.80
2018,07,29,13,51,27.80
2018,07,29,13,52,27.80
2018,07,29,13,53,27.90
2018,07,29,13,54,27.90
2018,07,29,13,55,27.90
2018,07,29,13,56,28.00
2018,07,29,13,57,28.00
2018,07,29,13,58,28.00
2018,07,29,13,59,28.10
2018,07,29,14,00,28.00
2018,07,29,14,01,28.00
2018,07,29,14,02,28.00
2018,07,29,14,03,28.00
2018,07,29,14,04,28.10
2018,07,29,14,05,28.10
2018,07,29,14,06,28.20
2018,07,29,14,07,28.20
2018,07,29,14,08,28.20
2018,07,29,14,09,28.20
2018,07,29,14,10,28.30
2018,07,29,14,11,28.40
2018,07,29,14,12,28.40
2018,07,29,14,13,28.40
2018,07,29,14,14,28.50
2018,07,29,14,15,28.50
2018,07,29,14,16,28.50
2018,07,29,14,17,28.40
2018,07,29,14,18,28.40
2018,07,29,14,19,28.40
2018,07,29,14,20,28.40
2018,07,29,14,21,28.40
2018,07,29,14,22,28.30
2018,07,29,14,23,28.30
2018,07,29,14,24,28.30
2018,07,29,14,25,28.30
2018,07,29,14,26,28.30
2018,07,29,14,27,28.30
2018,07,29,14,28,28.30
2018,07,29,14,29,28.30
2018,07,29,14,30,28.30
2018,07,29,14,31,28.30
2018,07,29,14,32,28.40
2018,07,29,14,33,28.50
2018,07,29,14,34,28.60
2018,07,29,14,35,28.70
2018,07,29,14,36,28.70
2018,07,29,14,37,28.80
2018,07,29,14,38,28.80
2018,07,29,14,39,28.80
2018,07,29,14,40,28.80
2018,07,29,14,41,28.80
2018,07,29,14,42,28.80
2018,07,29,14,43,28.80
2018,07,29,14,44,28.80
2018,07,29,14,45,28.90
2018,07,29,14,46,29.00
2018,07,29,14,47,29.10
2018,07,29,14,48,29.20
2018,07,29,14,49,29.30
2018,07,29,14,50,29.40
2018,07,29,14,51,29.40
2018,07,29,14,52,29.50
2018,07,29,14,53,29.60
2018,07,29,14,54,29.60
2018,07,29,14,55,29.60
2018,07,29,14,56,29.60
2018,07,29,14,57,29.60
2018,07,29,14,58,29.60
2018,07,29,14,59,29.60
2018,07,29,15,00,29.60
2018,07,29,15,01,29.60
2018,07,29,15,02,29.60
2018,07,29,15,03,29.70
2018,07,29,15,04,29.70
2018,07,29,15,05,29.70
2018,07,29,15,06,29.60
2018,07,29,15,07,29.50
2018,07,29,15,08,29.50
2018,07,29,15,09,29.50
2018,07,29,15,10,29.60
2018,07,29,15,11,29.60
2018,07,29,15,12,29.70
2018,07,29,15,13,29.70
2018,07,29,15,14,29.70
2018,07,29,15,15,29.70
2018,07,29,15,16,29.80
2018,07,29,15,17,29.80
2018,07,29,15,18,29.70
2018,07,29,15,19,29.70
2018,07,29,15,20,29.70
2018,07,29,15,21,29.70
2018,07,29,15,22,29.70
2018,07,29,15,23,29.70
2018,07,29,15,24,29.70
2018,07,29,15,25,29.70
2018,07,29,15,26,29.70
2018,07,29,15,27,29.70
2018,07,29,15,28,29.80
2018,07,29,15,29,29.90
2018,07,29,15,30,30.00
2018,07,29,15,31,30.00
2018,07,29,15,32,30.10
2018,07,29,15,33,30.10
2018,07,29,15,34,30.10
2018,07,29,15,35,30.20
2018,07,29,15,36,30.20
2018,07,29,15,37,30.30
2018,07,29,15,38,30.40
2018,07,29,15,39,30.40
2018,07,29,15,40,30.40
2018,07,29,15,41,30.30
2018,07,29,15,42,30.30
2018,07,29,15,43,30.30
2018,07,29,15,44,30.30
2018,07,29,15,45,30.20
2018,07,29,15,46,30.20
2018,07,29,15,47,30.20
2018,07,29,15,48,30.10
2018,07,29,15,49,30.10
2018,07,29,15,50,30.10
2018,07,29,15,51,30.00
2018,07,29,15,52,30.00
2018,07,29,15,53,30.00
2018,07,29,15,54,30.00
2018,07,29,15,55,30.00
2018,07,29,15,56,30.00
2018,07,29,15,57,30.00
2018,07,29,15,58,30.10
2018,07,29,15,59,30.20
2018,07,29,16,00,30.30
2018,07,29,16,01,30.30
2018,07,29,16,02,30.30
2018,07,29,16,03,30.30
2018,07,29,16,04,30.30
2018,07,29,16,05,30.30
2018,07,29,16,06,30.30
2018,07,29,16,07,30.30
2018,07,29,16,08,30.30
2018,07,29,16,09,30.30
2018,07,29,16,10,30.40
2018,07,29,16,11,30.40
2018,07,29,16,12,30.40
2018,07,29,16,13,30.40
2018,07,29,16,14,30.40
2018,07,29,16,15,30.50
2018,07,29,16,16,30.60
2018,07,29,16,17,30.60
2018,07,29,16,18,30.60
2018,07,29,16,19,30.70
2018,07,29,16,20,30.80
2018,07,29,16,21,30.80
2018,07,29,16,22,30.80
2018,07,29,16,23,30.90
2018,07,29,16,24,30.90
2018,07,29,16,25,31.00
2018,07,29,16,26,31.10
2018,07,29,16,27,31.10
2018,07,29,16,28,31.10
2018,07,29,16,29,31.10
2018,07,29,16,30,31.20
2018,07,29,16,31,31.10
2018,07,29,16,32,31.10
2018,07,29,16,33,31.10
2018,07,29,16,34,31.10
2018,07,29,16,35,31.10
2018,07,29,16,36,31.00
2018,07,29,16,37,31.00
2018,07,29,16,38,31.00
2018,07,29,16,39,31.00
2018,07,29,16,40,31.00
2018,07,29,16,41,31.00
2018,07,29,16,42,31.00
2018,07,29,16,43,31.00
2018,07,29,16,44,31.00
2018,07,29,16,45,31.10
2018,07,29,16,46,31.10
2018,07,29,16,47,31.10
2018,07,29,16,48,31.10
2018,07,29,16,49,31.10
2018,07,29,16,50,31.10
2018,07,29,16,51,31.10
2018,07,29,16,52,31.10
2018,07,29,16,53,31.10
2018,07,29,16,54,31.10
2018,07,29,16,55,31.10
2018,07,29,16,56,31.10
2018,07,29,16,57,31.20
2018,07,29,16,58,31.20
2018,07,29,16,59,31.20
2018,07,29,17,00,31.30
2018,07,29,17,01,31.30
2018,07,29,17,02,31.30
2018,07,29,17,03,31.30
2018,07,29,17,04,31.40
2018,07,29,17,05,31.40
2018,07,29,17,06,31.40
2018,07,29,17,07,31.40
2018,07,29,17,08,31.40
2018,07,29,17,09,31.40
2018,07,29,17,10,31.40
2018,07,29,17,11,31.40
2018,07,29,17,12,31.40
2018,07,29,17,13,31.40
2018,07,29,17,14,31.50
2018,07,29,17,15,31.50
2018,07,29,17,16,31.50
2018,07,29,17,17,31.60
2018,07,29,17,18,31.60
2018,07,29,17,19,31.60